| Date | Temp | Humidity | Rainfall | Dew Point | Wind Direction | Wind Speed | Wind Pressure | Condition | Visibility |
|---|---|---|---|---|---|---|---|---|---|
| 2025-05-11 06:59:51 | 26 | 89 | 24 | 230 | 1.9 | 1008 | Thunderstorm | 10 Km | |
| 2025-05-11 05:59:29 | 26 | 90 | 24 | 230 | 5.7 | 1008 | Thunderstorm | 10 km | |
| 2025-05-11 05:00:04 | 26 | 89 | 24 | 200 | 5.7 | 1008 | Night Thunderstorm | 10 km | |
| 2025-05-11 03:58:27 | 26 | 92 | 24 | 210 | 3.8 | 1008 | Night Thunderstorm | 10 km | |
| 2025-05-11 03:00:26 | 26 | 92 | 24 | 230 | 3.8 | 1008 | Lightning | 10 km | |
| 2025-05-11 01:59:57 | 26 | 91 | 0.00 | 24 | 220 | 5.7 | 1008 | Cloudy | 10 KM |
| 2025-05-11 01:59:56 | 26 | 91 | 0.00 | 24 | 220 | 5.7 | 1008 | Cloudy | 10 KM |
| 2025-05-11 01:02:55 | 26 | 89 | 0.00 | 24 | 89190 | 7.6 | 1008 | Cloudy | 10 KM |
| 2025-05-10 23:59:22 | 26 | 89 | 0.00 | 24 | 180 | 5.7 | 1009 | Cloudy | 10 KM |
| 2025-05-10 23:07:22 | 27 | 89 | 0.00 | 25 | 190 | 9.5 | 1009 | Cloudy | 10 KM |
| 2025-05-10 22:04:31 | 27 | 86 | 0.00 | 25 | 170 | 5.7 | 1009 | Cloudy | 10 KM |
| 2025-05-10 20:59:01 | 27 | 86 | 25 | 100 | 3.8 | 1009 | Night Thunderstorm | 10 KM | |
| 2025-05-10 19:57:58 | 28 | 84 | 25 | 120 | 5.7 | 1008 | Night Thunderstorm | 10 KM | |
| 2025-05-10 18:59:13 | 30 | 69 | 24 | 330 | 7.6 | 1007 | Night Thunderstorm | 10 KM | |
| 2025-05-10 17:59:16 | 31 | 66 | 24 | 310 | 11.4 | 1007 | Thunderstorm | 10 KM | |
| 2025-05-10 17:00:32 | 31 | 65 | 0 | 24 | 300 | 15.2 | 1006 | Partly Cloudy (Day) | 20 KM |
| 2025-05-10 15:59:20 | 32 | 63 | 0 | 24 | 280 | 17.1 | 1006 | Partly Cloudy (Day) | 20 KM |
| 2025-05-10 15:02:04 | 32 | 68 | 0 | 25 | 290 | 15.2 | 1006 | Partly Cloudy (Day) | 15 KM |
| 2025-05-10 14:12:21 | 32 | 63 | 0 | 24 | 280 | 11.4 | 1007 | Showers | 10 KM |
| 2025-05-10 14:05:20 | 32 | 63 | 0 | 24 | 280 | 11.4 | 1007 | Distant showers | 10 KM |
| 2025-05-10 14:03:45 | 32 | 63 | 0 | 24 | 280 | 11.4 | 1007 | Cloudy | 10 KM |
| 2025-05-10 14:02:45 | 32 | 63 | 0 | 24 | 280 | 11.4 | 1007 | Distant showers | 10 KM |
| 2025-05-10 14:00:00 | 32 | 63 | 0 | 24 | 280 | 11.4 | 1007 | Distant showers | 15 KM |
| 2025-05-10 13:00:42 | 32 | 65 | 0.0 | 25 | 320 | 13.3 | 1008 | Cloudy | 20 KM |
| 2025-05-10 11:59:32 | 30 | 73 | 0.00 | 24 | 280 | 7.6 | 1009 | Cloudy | 20 KM |